Location: Newark
(36.1358°N, 115.1208°W)
Time: 00:47:02
(UTC+00:00)

Vanguard 1 Rocket - Pass Details

Date: 23 February 2020
Orbit: 650 x 4226 km, 34.3° (Epoch: 01 April)

Event Time Altitude Azimuth Distance (km) Brightness Sun altitude
Rises 16:13:42 0° 261° (W) 2,979 9.6 20.8°
Reaches altitude 10° 16:17:28 10° 226° (SW) 2,245 9.3 21.4°
Maximum altitude 16:19:12 12° 205° (SSW) 2,261 9.6 21.7°
Drops below altitude 10° 16:21:08 10° 185° (S) 2,555 10.1 22.1°
Sets 16:26:25 0° 155° (SSE) 4,117 11.7 23.0°
